Location: Poprad
(49.0500°N, 20.3000°E)
Time: 21:46:55
(UTC+02:00)

CAS-6 - Visible Passes

Search period start: 22 April 2024 00:00
Search period end: 02 May 2024 00:00
Orbit: 607 x 629 km, 97.8° (Epoch: 22 April)

Date Brightness Start Highest point End Pass type
(mag) Time Alt. Az. Time Alt. Az. Time Alt. Az.
22 Apr ? 21:33:02 18° E 21:34:18 21° ENE 21:37:32 10° NNE visible
22 Apr ? 23:10:10 49° W 23:10:10 49° W 23:14:18 10° NNW visible
23 Apr ? 21:49:50 26° E 21:50:51 29° ENE 21:54:34 10° N visible
23 Apr ? 23:26:58 34° W 23:26:58 34° W 23:30:49 10° NNW visible
24 Apr ? 22:06:38 36° E 22:07:26 40° ENE 22:11:29 10° N visible
24 Apr ? 23:43:45 24° W 23:43:45 24° W 23:47:11 10° NW visible
25 Apr ? 22:23:25 51° ESE 22:24:04 58° ENE 22:28:18 10° N visible
26 Apr ? 00:00:32 17° W 00:00:32 17° W 00:03:19 10° NW visible
26 Apr ? 21:03:40 10° E 21:05:19 12° ENE 21:06:59 10° NNE visible
26 Apr ? 22:40:12 69° SSE 22:40:43 85° ENE 22:45:02 10° NNW visible
27 Apr ? 00:17:19 11° W 00:17:24 11° W 00:18:52 10° WNW visible
27 Apr ? 21:19:52 13° E 21:21:47 17° ENE 21:24:30 10° NNE visible
27 Apr ? 22:56:59 62° SW 22:57:24 66° WSW 23:01:42 10° NNW visible
28 Apr ? 21:36:38 18° E 21:38:17 22° ENE 21:41:38 10° NNE visible
28 Apr ? 23:13:45 44° WSW 23:14:07 45° W 23:18:15 10° NNW visible
29 Apr ? 21:53:24 25° E 21:54:49 31° ENE 21:58:36 10° N visible
29 Apr ? 23:30:31 30° WSW 23:30:52 31° W 23:34:42 10° NNW visible
30 Apr ? 22:10:09 34° ESE 22:11:22 44° ENE 22:15:27 10° N visible
30 Apr ? 23:47:16 21° W 23:47:39 22° W 23:51:00 10° NW visible
01 May ? 22:26:54 46° SE 22:27:58 64° ENE 22:32:13 10° N visible
